Weather History for Dallas/Ft Worth, TX

Change the Weather History Date:

Thursday, October 6, 2011

  Actual Average Record
Temperature  
Mean Temperature 76 °F 71 °F  
Max Temperature 88 °F 81 °F 96 °F (1956)
Min Temperature 63 °F 60 °F 43 °F (1915)
Degree Days  
Heating Degree Days 0 1  
Month to date heating degree days 0 6  
Since 1 July heating degree days 0 12  
Cooling Degree Days 11 7  
Month to date cooling degree days 42 44  
Year to date cooling degree days 3467 2621  
Growing Degree Days 26 (Base 50)    
Moisture  
Dew Point 58 °F    
Average Humidity 57    
Maximum Humidity 78    
Minimum Humidity 36    
Precipitation  
Precipitation 0.00 in 0.11 in 3.44 in (1930)
Month to date precipitation 0.00 0.60  
Year to date precipitation 17.55 27.26  
Snow  
Snow 0.00 in 0.00 in 0.00 in ()
Month to date snowfall 0.0 0.0  
Since 1 July snowfall 0.0 0.0  
Since 1 September snowfall 0.0 0.0  
Snow Depth 0.00 in    
Sea Level Pressure  
Sea Level Pressure 29.96 in    
Wind  
Wind Speed 15 mph (SSE)    
Max Wind Speed 25 mph    
Max Gust Speed 33 mph    
Visibility 10 miles    
Events      
T = Trace of Precipitation, MM = Missing Value Source: NWS Daily Summary

Daily Weather History Graph

Daily Weather History Graph

Search for Another Location

Airport:

Trip Planner

Search our weather history database for the weather conditions in past years. The results will help you decide how hot, cold, wet, or windy it might be!

Date:

Astronomy

Oct. 06, 2011 Rise Set
Actual Time 7:25 AM CDT 7:06 PM CDT
Civil Twilight 7:00 AM CDT 7:31 PM CDT
Nautical Twilight 6:32 AM CDT 7:59 PM CDT
Astronomical Twilight 6:03 AM CDT 8:28 PM CDT
Moon 4:06 PM CDT (10/6) 2:30 AM CDT (10/6)
Length of Visible Light 12h 30m
Length of Day
11h 40m
Waxing Gibbous, 75% of the Moon is Illuminated
Oct 6
Waxing Gibbous
Oct 11
Full
Oct 19
Last Quarter
Oct 26
New
Nov 2
First Quarter

Hourly Weather History & Observations

Time (CDT) Temp. Heat Index Dew Point Humidity Pressure Visibility Wind Dir Wind Speed Gust Speed Precip Events Conditions
12:53 AM 73.9 °F - 46.0 °F 37% 29.97 in 10.0 mi SSE 12.7 mph - N/A   Mostly Cloudy
1:53 AM 73.9 °F - 51.1 °F 45% 29.98 in 10.0 mi South 12.7 mph - N/A   Mostly Cloudy
2:53 AM 73.0 °F - 54.0 °F 51% 29.99 in 10.0 mi South 13.8 mph - N/A   Mostly Cloudy
3:53 AM 72.0 °F - 57.0 °F 59% 29.98 in 10.0 mi South 12.7 mph - N/A   Mostly Cloudy
4:53 AM 72.0 °F - 57.9 °F 61% 29.98 in 10.0 mi SSE 12.7 mph - N/A   Mostly Cloudy
5:53 AM 70.0 °F - 61.0 °F 73% 29.98 in 10.0 mi SSE 11.5 mph - N/A   Mostly Cloudy
6:53 AM 64.0 °F - 55.9 °F 75% 30.00 in 10.0 mi ESE 6.9 mph - N/A   Mostly Cloudy
7:53 AM 64.0 °F - 57.0 °F 78% 30.01 in 10.0 mi SE 6.9 mph - N/A   Scattered Clouds
8:53 AM 69.1 °F - 61.0 °F 75% 30.03 in 10.0 mi SSE 13.8 mph - N/A   Scattered Clouds
9:53 AM 73.4 °F - 62.6 °F 69% 30.05 in 10.0 mi SSE 15.0 mph - N/A   Scattered Clouds
10:53 AM 77.0 °F - 63.0 °F 62% 30.02 in 10.0 mi South 16.1 mph - N/A   Scattered Clouds
11:53 AM 81.0 °F 82.2 °F 63.0 °F 54% 30.00 in 10.0 mi SSE 15.0 mph 24.2 mph N/A   Scattered Clouds
12:53 PM 82.9 °F 84.0 °F 63.0 °F 51% 29.98 in 10.0 mi South 17.3 mph 23.0 mph N/A   Mostly Cloudy
1:53 PM 84.9 °F 85.0 °F 61.0 °F 44% 29.95 in 10.0 mi SSE 16.1 mph - N/A   Mostly Cloudy
2:53 PM 87.1 °F 86.5 °F 59.0 °F 39% 29.92 in 10.0 mi South 19.6 mph - N/A   Mostly Cloudy
3:53 PM 87.1 °F 86.5 °F 59.0 °F 39% 29.91 in 10.0 mi SSE 18.4 mph 27.6 mph N/A   Mostly Cloudy
4:53 PM 87.1 °F 86.5 °F 59.0 °F 39% 29.89 in 10.0 mi South 18.4 mph 26.5 mph N/A   Scattered Clouds
5:53 PM 87.1 °F 86.1 °F 57.9 °F 37% 29.88 in 10.0 mi SSE 18.4 mph 24.2 mph N/A   Partly Cloudy
6:53 PM 86.0 °F 85.0 °F 57.9 °F 38% 29.88 in 10.0 mi SE 13.8 mph - N/A   Scattered Clouds
7:53 PM 84.0 °F 83.5 °F 57.9 °F 41% 29.89 in 10.0 mi SE 12.7 mph - N/A   Scattered Clouds
8:53 PM 82.9 °F 82.6 °F 57.9 °F 42% 29.91 in 10.0 mi SE 12.7 mph - N/A   Mostly Cloudy
9:53 PM 82.0 °F 82.0 °F 57.9 °F 44% 29.91 in 10.0 mi SE 13.8 mph - N/A   Scattered Clouds
10:53 PM 81.0 °F 81.3 °F 59.0 °F 47% 29.93 in 10.0 mi SE 11.5 mph 21.9 mph N/A   Mostly Cloudy
11:53 PM 80.1 °F 81.7 °F 64.0 °F 58% 29.93 in 10.0 mi SSE 19.6 mph 31.1 mph N/A   Mostly Cloudy